Regional Weather Roundup
Issued by NWS

Home | Current Version | Previous Version | Text Only | Print | Product List | Glossary Off
Versions: 1 2 3 4 5 6 7 8 9 10 11 12 13 14 15 16 17 18 19 20 21 22 23 24 25 26 27 28 29 30 31 32 33 34 35 36 37 38 39 40 41 42 43 44 45 46 47 48 49 50

000
ASUS43 KDMX 011103
RWRIA

WEATHER ROUNDUP FOR IOWA
NATIONAL WEATHER SERVICE DES MOINES IA
600 AM CDT SAT OCT 01 2016

NOTE: "FAIR" INDICATES FEW OR NO CLOUDS BELOW 12,000 FEET WITH NO
SIGNIFICANT WEATHER AND/OR OBSTRUCTIONS TO VISIBILITY.

* - THESE STATIONS ARE NOT NWS STATIONS...THUS NOT UNDER NWS
QUALITY CONTROL.  THEY ALSO DO NOT REPORT WEATHER SUCH
AS PRECIPITATION OR FOG.

IAZ001>003-012>014-020>022-031>034-043>046-011200-
   NORTHWEST IOWA

CITY           SKY/WX    TMP DP  RH WIND       PRES   REMARKS
CARROLL *      CLOUDY    59  57  94 CALM      30.14S
CHEROKEE *     CLOUDY    57  56  97 CALM      30.16S
DENISON *      CLOUDY    57  55  94 CALM      30.13S
LE MARS *      CLOUDY    57  54  88 CALM      30.16S
SHELDON *      CLOUDY    55  55 100 CALM      30.15S
SIOUX CITY     CLOUDY    58  55  90 CALM      30.15S
SPENCER        CLOUDY    58  56  93 N3        30.16S
STORM LAKE *   CLOUDY    57  55  94 N3        30.16R
$$

IAZ055>058-069>071-079>083-090>094-011200-
   SOUTHWEST IOWA

CITY           SKY/WX    TMP DP  RH WIND       PRES   REMARKS
ATLANTIC *     CLOUDY    57  55  94 CALM      30.14S
AUDUBON *      CLOUDY    57  54  88 CALM      30.15S
CLARINDA *       N/A     57  57 100 MISG      30.14S FOG
COUNCIL BLFS * CLOUDY    57  55  94 CALM      30.14S FOG
CRESTON *      CLOUDY    57  57 100 N5        30.14S FOG
HARLAN  *      CLOUDY    57  57 100 CALM      30.17F
LAMONI         CLOUDY    58  56  93 N7        30.11F
RED OAK *      CLOUDY    57  55  94 CALM      30.14S FOG
SHENANDOAH *   CLOUDY    57  55  94 CALM      30.15R
$$

IAZ047>049-059>061-072>074-084-011200-
   CENTRAL IOWA

CITY           SKY/WX    TMP DP  RH WIND       PRES   REMARKS
AMES           CLOUDY    59  58  96 N6        30.12S
ANKENY *         N/A    N/A N/A N/A MISG        N/A
BOONE *        CLOUDY    59  57  94 N5        30.12S
CHARITON *       N/A     57  57 100 N6        30.10S FOG
DES MOINES     DRIZZLE   60  58  92 N6        30.11S
GRINNELL*      CLOUDY    58  56  94 NW5       30.11S
KNOXVILLE *    CLOUDY    59  57  94 NW5       30.09S FOG
MARSHALLTOWN   CLOUDY    59  57  93 N5        30.11R
NEWTON *       CLOUDY    59  57  94 N9        30.09F
PELLA *        MOCLDY    58  57  94 N5        30.11S
PERRY *        CLOUDY    58  58  99 CALM      30.13S FOG
$$

IAZ004>006-015-016-023>025-035-036-011200-
   NORTH CENTRAL IOWA

CITY           SKY/WX    TMP DP  RH WIND       PRES   REMARKS
ALGONA *       CLOUDY    57  55  94 N5        30.15S
CLARION *      PTCLDY    55  55 100 N5        30.13S
ESTHERVILLE    CLOUDY    57  55  93 N5        30.15F
FORT DODGE *   CLOUDY    57  54  88 N5        30.14F
MASON CITY     CLOUDY    58  55  90 NE3       30.15S
FOREST CITY *  CLOUDY    59  54  82 NE3       30.15S
WEBSTER CITY * CLOUDY    59  57  94 CALM      30.11S
IOWA FALLS *   CLOUDY    59  56  92 N5        30.14R
$$

IAZ007>011-017>019-026>030-037>042-050>054-066-011200-
   NORTHEAST IOWA

CITY           SKY/WX    TMP DP  RH WIND       PRES   REMARKS
CEDAR RAPIDS   CLOUDY    59  59 100 N7        30.07S
CHARLES CITY * CLOUDY    59  57  94 N7        30.13S
CLINTON *      LGT RAIN  59  58  96 N8        30.05F
DECORAH *      CLOUDY    57  57 100 VRB5      30.11S
DUBUQUE        CLOUDY    58  57  97 N8        30.07F FOG
MONTICELLO *   CLOUDY    59  57  94 N7        30.07S
OELWEIN *      CLOUDY    59  57  94 N8        30.11R
WATERLOO       CLOUDY    58  56  93 NW5       30.10S
$$

IAZ064-065-067-068-078-011200-
   EAST CENTRAL IOWA

CITY           SKY/WX    TMP DP  RH WIND       PRES   REMARKS
DAVENPORT      CLOUDY    60  57  89 N7        30.05F
IOWA CITY      CLOUDY    61  57  87 NW5       30.08S
MUSCATINE *    CLOUDY    61  57  88 NW6       30.06S
QUAD CITIES    CLOUDY    61  58  90 N5        30.04S
$$

IAZ062-063-075>077-085>089-095>099-011200-
   SOUTHEAST IOWA

CITY           SKY/WX    TMP DP  RH WIND       PRES   REMARKS
BURLINGTON     CLOUDY    59  59 100 N7        30.05S
FAIRFIELD *    CLOUDY    61  57  88 N7        30.08R
FORT MADISON *   N/A     61  57  88 NW3       30.07R
KEOKUK *       CLOUDY    61  59  94 NW6       30.05S
OSKALOOSA *    CLOUDY    58  57  94 NW5       30.09S
OTTUMWA        CLOUDY    60  56  86 NW7       30.08F
WASHINGTON *     N/A    N/A N/A N/A MISG        N/A
$$

ABBREVIATIONS USED IN REMARKS
   TC - TEMPERATURES IN CELSIUS
  WCI - WIND CHILL INDEX
   HX - HEAT INDEX
  VSB - VISIBILITY
$$





USA.gov is the U.S. government's official web portal to all federal, state and local government web resources and services.